When you browse on this site, cookies collect data to enhance your experience and personalize the content and advertising you see.
Visit our Privacy Policy to learn more. By continuing to use the site, you agree to this use of cookies and data.
  • In Hungary
  • List of Countries
  • For 7 days
  • Water Temperature
  • Satellite Maps
  • Weather Map
  • News
  • Weather Widgets
  • user-avatar
    Login

    Hourly Weather Byrdowo

    Today, 24 January, Thursday

    Time Temperature Precipitation Wind Pressure Humidity
    00:00 -12°C° 0 mm 3 mps 713 mmHg 89%
    01:00 -12°C° 0 mm 3 mps 713 mmHg 89%
    02:00 -12°C° 0 mm 3 mps 713 mmHg 89%
    03:00 -12°C° 0 mm 3 mps 713 mmHg 90%
    04:00 -12°C° 0 mm 3 mps 713 mmHg 90%
    05:00 -12°C° 0 mm 3 mps 713 mmHg 90%
    06:00 -10°C° 0 mm 3 mps 713 mmHg 90%
    07:00 -10°C° 0 mm 3 mps 713 mmHg 89%
    08:00 -10°C° 0 mm 3 mps 714 mmHg 88%
    09:00 -9°C° 0 mm 3 mps 714 mmHg 86%
    10:00 -9°C° 0 mm 4 mps 714 mmHg 85%
    11:00 -9°C° 0 mm 4 mps 714 mmHg 83%
    12:00 -8°C° 0 mm 4 mps 714 mmHg 82%
    13:00 -8°C° 0 mm 4 mps 714 mmHg 80%
    14:00 -8°C° 0 mm 4 mps 714 mmHg 81%
    15:00 -8°C° 0 mm 4 mps 714 mmHg 82%
    16:00 -9°C° 0 mm 4 mps 714 mmHg 83%
    17:00 -9°C° 0 mm 4 mps 714 mmHg 84%
    18:00 -9°C° 0 mm 4 mps 714 mmHg 84%
    19:00 -10°C° 0 mm 4 mps 714 mmHg 85%
    20:00 -10°C° 0.1 mm 4 mps 714 mmHg 86%
    21:00 -9°C° 0.1 mm 3 mps 715 mmHg 87%
    22:00 -9°C° 0.1 mm 3 mps 715 mmHg 89%
    23:00 -9°C° 0.1 mm 3 mps 715 mmHg 89%

    Tomorrow, 25 January, Friday

    Time Temperature Precipitation Wind Pressure Humidity
    00:00 -9°C° 0.1 mm 3 mps 715 mmHg 90%
    01:00 -8°C° 0.1 mm 2 mps 715 mmHg 90%
    02:00 -8°C° 0.1 mm 2 mps 715 mmHg 90%
    03:00 -8°C° 0.1 mm 2 mps 715 mmHg 91%
    04:00 -8°C° 0.1 mm 2 mps 715 mmHg 91%
    05:00 -8°C° 0.2 mm 2 mps 715 mmHg 92%
    06:00 -7°C° 0.2 mm 1 mps 715 mmHg 92%
    07:00 -7°C° 0.2 mm 1 mps 715 mmHg 92%
    08:00 -7°C° 0.3 mm 1 mps 716 mmHg 92%
    09:00 -7°C° 0.3 mm 1 mps 716 mmHg 91%
    10:00 -6°C° 0.3 mm 1 mps 716 mmHg 91%
    11:00 -6°C° 0.2 mm 1 mps 717 mmHg 89%
    12:00 -6°C° 0.2 mm 1 mps 717 mmHg 87%
    13:00 -6°C° 0.2 mm 2 mps 717 mmHg 86%
    14:00 -6°C° 0.1 mm 2 mps 717 mmHg 87%
    15:00 -6°C° 0.1 mm 2 mps 717 mmHg 88%
    16:00 -6°C° 0.1 mm 2 mps 718 mmHg 88%
    17:00 -6°C° 0 mm 2 mps 718 mmHg 89%
    18:00 -7°C° 0 mm 2 mps 719 mmHg 90%
    19:00 -7°C° 0 mm 2 mps 719 mmHg 91%
    20:00 -7°C° 0.1 mm 2 mps 719 mmHg 91%
    21:00 -7°C° 0.1 mm 2 mps 720 mmHg 91%
    22:00 -6°C° 0.1 mm 1 mps 720 mmHg 91%
    23:00 -7°C° 0 mm 2 mps 720 mmHg 91%

    Day after tomorrow, 26 January, Saturday

    Time Temperature Precipitation Wind Pressure Humidity
    00:00 -8°C° 0 mm 2 mps 720 mmHg 91%
    01:00 -8°C° 0 mm 2 mps 720 mmHg 91%
    02:00 -8°C° 0 mm 2 mps 720 mmHg 92%
    03:00 -8°C° 0 mm 1 mps 720 mmHg 92%
    04:00 -8°C° 0 mm 1 mps 720 mmHg 92%
    05:00 -9°C° 0 mm 1 mps 720 mmHg 92%
    06:00 -9°C° 0 mm 1 mps 720 mmHg 92%
    07:00 -10°C° 0 mm 1 mps 720 mmHg 91%
    08:00 -9°C° 0 mm 2 mps 719 mmHg 87%
    09:00 -8°C° 0 mm 2 mps 719 mmHg 83%
    10:00 -6°C° 0 mm 2 mps 719 mmHg 79%
    11:00 -6°C° 0 mm 3 mps 718 mmHg 75%
    12:00 -4°C° 0 mm 3 mps 718 mmHg 71%
    13:00 -3°C° 0 mm 4 mps 717 mmHg 68%
    14:00 -3°C° 0 mm 4 mps 717 mmHg 71%
    15:00 -3°C° 0 mm 4 mps 716 mmHg 75%
    16:00 -4°C° 0 mm 4 mps 716 mmHg 79%
    17:00 -4°C° 0.4 mm 4 mps 716 mmHg 82%
    18:00 -4°C° 0.4 mm 4 mps 716 mmHg 86%
    19:00 -4°C° 0.4 mm 4 mps 716 mmHg 89%
    20:00 -3°C° 0.1 mm 4 mps 716 mmHg 89%
    21:00 -3°C° 0.1 mm 4 mps 716 mmHg 89%
    22:00 -2°C° 0.1 mm 3 mps 715 mmHg 89%
    23:00 -2°C° 0.2 mm 3 mps 715 mmHg 90%

    27 January, Sunday

    Time Temperature Precipitation Wind Pressure Humidity
    00:00 -2°C° 0.2 mm 3 mps 715 mmHg 90%
    01:00 -1°C° 0.2 mm 3 mps 715 mmHg 90%
    02:00 -1°C° 0.1 mm 3 mps 715 mmHg 91%
    03:00 -1°C° 0.1 mm 2 mps 715 mmHg 91%
    04:00 -1°C° 0.1 mm 2 mps 715 mmHg 92%
    05:00 -1°C° 0 mm 2 mps 714 mmHg 91%
    06:00 -2°C° 0 mm 2 mps 714 mmHg 91%
    07:00 -2°C° 0 mm 2 mps 714 mmHg 91%
    08:00 -1°C° 0 mm 2 mps 714 mmHg 92%
    09:00 +1°C° 0 mm 2 mps 714 mmHg 92%
    10:00 +2°C° 0 mm 2 mps 714 mmHg 92%
    11:00 +2°C° 0 mm 2 mps 713 mmHg 92%
    12:00 +3°C° 0 mm 2 mps 713 mmHg 92%
    13:00 +3°C° 0 mm 2 mps 712 mmHg 92%
    14:00 +3°C° 0 mm 2 mps 712 mmHg 92%
    15:00 +2°C° 0 mm 2 mps 712 mmHg 91%
    16:00 +1°C° 0 mm 2 mps 711 mmHg 90%
    17:00 +1°C° 0 mm 2 mps 711 mmHg 90%
    18:00 -1°C° 0 mm 2 mps 711 mmHg 89%
    19:00 -1°C° 0 mm 2 mps 711 mmHg 88%
    20:00 -2°C° 0 mm 2 mps 711 mmHg 87%
    21:00 -2°C° 0 mm 2 mps 711 mmHg 86%
    22:00 -3°C° 0 mm 2 mps 711 mmHg 85%
    23:00 -3°C° 0 mm 2 mps 710 mmHg 85%

    28 January, Monday

    Time Temperature Precipitation Wind Pressure Humidity
    00:00 -3°C° 0 mm 2 mps 710 mmHg 84%
    01:00 -3°C° 0 mm 2 mps 710 mmHg 83%
    02:00 -5°C° 0 mm 3 mps 710 mmHg 83%
    03:00 -5°C° 0 mm 3 mps 709 mmHg 83%
    04:00 -5°C° 0 mm 3 mps 709 mmHg 83%
    05:00 -5°C° 0 mm 3 mps 709 mmHg 83%
    06:00 -6°C° 0 mm 3 mps 709 mmHg 83%
    07:00 -6°C° 0 mm 3 mps 709 mmHg 84%
    08:00 -4°C° 0 mm 3 mps 710 mmHg 83%
    09:00 -2°C° 0 mm 3 mps 710 mmHg 82%
    10:00 -2°C° 0 mm 4 mps 711 mmHg 81%
    11:00 -1°C° 0 mm 4 mps 710 mmHg 81%
    12:00 0°C° 0 mm 4 mps 710 mmHg 81%
    13:00 0°C° 0 mm 4 mps 710 mmHg 81%
    14:00 +1°C° 0 mm 3 mps 710 mmHg 82%
    15:00 0°C° 0 mm 3 mps 710 mmHg 83%
    16:00 -1°C° 0 mm 2 mps 711 mmHg 84%
    17:00 -1°C° 0 mm 2 mps 711 mmHg 85%
    18:00 -2°C° 0 mm 2 mps 711 mmHg 86%
    19:00 -2°C° 0 mm 3 mps 711 mmHg 87%
    20:00 -2°C° 0.1 mm 2 mps 711 mmHg 88%
    21:00 -2°C° 0.1 mm 2 mps 711 mmHg 89%
    22:00 -2°C° 0.1 mm 2 mps 712 mmHg 89%
    23:00 0°C° 0.3 mm 1 mps 712 mmHg 91%

    29 January, Tuesday

    Time Temperature Precipitation Wind Pressure Humidity
    00:00 0°C° 0.3 mm 1 mps 712 mmHg 93%
    01:00 0°C° 0.3 mm 1 mps 712 mmHg 94%
    02:00 0°C° 0.3 mm 1 mps 711 mmHg 94%
    03:00 0°C° 0.3 mm 1 mps 711 mmHg 95%
    04:00 -1°C° 0.3 mm 1 mps 711 mmHg 95%
    05:00 -1°C° 0.2 mm 1 mps 711 mmHg 95%
    06:00 -1°C° 0.2 mm 1 mps 711 mmHg 95%
    07:00 -1°C° 0.2 mm 1 mps 711 mmHg 95%
    08:00 -1°C° 0.1 mm 1 mps 711 mmHg 92%
    09:00 -1°C° 0.1 mm 0 mps 712 mmHg 90%
    10:00 -1°C° 0.1 mm 0 mps 712 mmHg 88%
    11:00 0°C° 0.1 mm 0 mps 712 mmHg 87%
    12:00 0°C° 0.1 mm 0 mps 712 mmHg 86%
    13:00 0°C° 0.1 mm 0 mps 712 mmHg 84%
    14:00 0°C° 0.1 mm 0 mps 712 mmHg 86%
    15:00 -1°C° 0.1 mm 0 mps 712 mmHg 87%
    16:00 -1°C° 0.1 mm 0 mps 712 mmHg 89%
    17:00 -1°C° 0 mm 1 mps 712 mmHg 89%
    18:00 -1°C° 0 mm 1 mps 712 mmHg 90%
    19:00 -2°C° 0 mm 1 mps 713 mmHg 90%
    20:00 -4°C° 0 mm 2 mps 713 mmHg 89%
    21:00 -5°C° 0 mm 2 mps 713 mmHg 88%
    22:00 -6°C° 0 mm 2 mps 713 mmHg 87%
    23:00 -6°C° 0 mm 2 mps 712 mmHg 86%
    Show more